| time (UTC) | temp C | wind direction | speed KPH | gust KPH | rain 1hr cm | rain 24hr cm | rain mn cm | humidity % | barometer mb |
| 20260507191515 | 17 | 273 | 20.9 | 35.4 | 0.00 | 0.00 | 0.00 | 37 | 1014.5 |
| 20260507190028 | 17 | 232 | 17.7 | 38.6 | 0.00 | 0.00 | 0.00 | 38 | 1014.8 |
| 20260507184511 | 17 | 248 | 17.7 | 40.2 | 0.00 | 0.00 | 0.00 | 38 | 1015.1 |
| 20260507183016 | 17 | 261 | 14.5 | 29.0 | 0.00 | 0.00 | 0.00 | 38 | 1015.2 |
| 20260507181507 | 17 | 276 | 14.5 | 30.6 | 0.00 | 0.00 | 0.00 | 37 | 1015.3 |
| 20260507180002 | 17 | 268 | 12.9 | 35.4 | 0.00 | 0.00 | 0.00 | 41 | 1015.7 |
| 20260507174600 | 17 | 232 | 9.7 | 37.0 | 0.00 | 0.00 | 0.00 | 41 | 1015.9 |
| 20260507173059 | 16 | 234 | 14.5 | 29.0 | 0.00 | 0.00 | 0.00 | 39 | 1016.1 |
| 20260507171603 | 16 | 246 | 19.3 | 37.0 | 0.00 | 0.00 | 0.00 | 40 | 1016.3 |
| 20260507170055 | 16 | 246 | 17.7 | 33.8 | 0.00 | 0.00 | 0.00 | 40 | 1016.6 |
| 20260507164555 | 16 | 257 | 17.7 | 33.8 | 0.00 | 0.00 | 0.00 | 41 | 1016.8 |
| 20260507163050 | 16 | 300 | 14.5 | 30.6 | 0.00 | 0.00 | 0.00 | 41 | 1016.9 |
| 20260507161548 | 15 | 267 | 22.5 | 41.8 | 0.00 | 0.00 | 0.00 | 42 | 1017.2 |
| 20260507160054 | 15 | 287 | 12.9 | 38.6 | 0.00 | 0.00 | 0.00 | 43 | 1017.1 |
| 20260507154544 | 15 | 245 | 9.7 | 29.0 | 0.00 | 0.00 | 0.00 | 44 | 1017.3 |
| 20260507153050 | 15 | 252 | 16.1 | 37.0 | 0.00 | 0.00 | 0.00 | 42 | 1017.3 |
| 20260507151540 | 14 | 252 | 19.3 | 32.2 | 0.00 | 0.00 | 0.00 | 42 | 1017.4 |
| 20260507150037 | 14 | 257 | 16.1 | 27.4 | 0.00 | 0.00 | 0.00 | 43 | 1017.5 |
| 20260507144534 | 13 | 243 | 17.7 | 32.2 | 0.00 | 0.00 | 0.00 | 44 | 1017.7 |
| 20260507143032 | 13 | 281 | 14.5 | 32.2 | 0.00 | 0.00 | 0.00 | 45 | 1017.6 |
| 20260507141528 | 12 | 229 | 9.7 | 24.1 | 0.00 | 0.00 | 0.00 | 47 | 1017.8 |
| 20260507140025 | 12 | 279 | 6.4 | 24.1 | 0.00 | 0.00 | 0.00 | 47 | 1017.8 |
| 20260507134523 | 11 | 274 | 11.3 | 19.3 | 0.00 | 0.00 | 0.00 | 48 | 1017.8 |
| 20260507133019 | 11 | 271 | 11.3 | 20.9 | 0.00 | 0.00 | 0.00 | 49 | 1017.8 |
| 20260507131517 | 10 | 261 | 8.0 | 19.3 | 0.00 | 0.00 | 0.00 | 50 | 1018.0 |
| 20260507130011 | 10 | 252 | 6.4 | 14.5 | 0.00 | 0.00 | 0.00 | 52 | 1018.2 |
| 20260507124509 | 8 | 264 | 4.8 | 11.3 | 0.00 | 0.00 | 0.00 | 55 | 1018.2 |
| 20260507123010 | 7 | 73 | 3.2 | 6.4 | 0.00 | 0.00 | 0.00 | 56 | 1018.3 |
| 20260507121507 | 6 | 47 | 3.2 | 6.4 | 0.00 | 0.00 | 0.00 | 57 | 1018.3 |
| 20260507120006 | 6 | 47 | 3.2 | 6.4 | 0.00 | 0.00 | 0.00 | 58 | 1018.0 |
| 20260507114506 | 5 | 44 | 3.2 | 4.8 | 0.00 | 0.00 | 0.00 | 58 | 1018.3 |
| 20260507113006 | 5 | 44 | 3.2 | 6.4 | 0.00 | 0.00 | 0.00 | 58 | 1018.2 |
| 20260507111509 | 5 | 44 | 3.2 | 4.8 | 0.00 | 0.00 | 0.00 | 57 | 1018.2 |
| 20260507110002 | 5 | 44 | 1.6 | 3.2 | 0.00 | 0.00 | 0.00 | 57 | 1018.1 |
| 20260507104501 | 5 | 44 | 1.6 | 4.8 | 0.00 | 0.00 | 0.00 | 56 | 1018.1 |
| 20260507103059 | 6 | 44 | 0.0 | 3.2 | 0.00 | 0.00 | 0.00 | 55 | 1018.2 |
| 20260507101558 | 6 | 44 | 1.6 | 4.8 | 0.00 | 0.00 | 0.00 | 55 | 1018.2 |
| 20260507100058 | 6 | 44 | 3.2 | 4.8 | 0.00 | 0.00 | 0.00 | 55 | 1018.2 |
| 20260507094555 | 6 | 44 | 1.6 | 4.8 | 0.00 | 0.00 | 0.00 | 54 | 1018.3 |
| 20260507093053 | 6 | 44 | 3.2 | 4.8 | 0.00 | 0.00 | 0.00 | 54 | 1018.3 |
| 20260507091552 | 6 | 44 | 1.6 | 4.8 | 0.00 | 0.00 | 0.00 | 54 | 1018.3 |
| 20260507090051 | 6 | 44 | 1.6 | 3.2 | 0.00 | 0.00 | 0.00 | 54 | 1018.4 |
| 20260507084554 | 6 | 44 | 1.6 | 4.8 | 0.00 | 0.00 | 0.00 | 54 | 1018.4 |
| 20260507083050 | 6 | 44 | 1.6 | 4.8 | 0.00 | 0.00 | 0.00 | 53 | 1018.4 |
| 20260507081544 | 6 | 44 | 0.0 | 0.0 | 0.00 | 0.00 | 0.00 | 52 | 1018.6 |
| 20260507080057 | 7 | 44 | 0.0 | 3.2 | 0.00 | 0.00 | 0.00 | 52 | 1018.6 |
| 20260507074544 | 7 | 44 | 1.6 | 3.2 | 0.00 | 0.00 | 0.00 | 52 | 1018.5 |
| 20260507073037 | 7 | 44 | 1.6 | 4.8 | 0.00 | 0.00 | 0.00 | 52 | 1018.6 |
| 20260507071552 | 7 | 44 | 1.6 | 4.8 | 0.00 | 0.00 | 0.00 | 51 | 1018.9 |
| 20260507070035 | 7 | 44 | 3.2 | 4.8 | 0.00 | 0.00 | 0.00 | 51 | 1019.0 |
| 20260507064531 | 7 | 44 | 1.6 | 4.8 | 0.00 | 0.03 | 0.00 | 51 | 1019.3 |
| 20260507063032 | 8 | 44 | 1.6 | 4.8 | 0.00 | 0.03 | 0.00 | 50 | 1019.2 |
| 20260507061526 | 8 | 44 | 1.6 | 4.8 | 0.00 | 0.03 | 0.00 | 48 | 1019.2 |
| 20260507060028 | 8 | 44 | 0.0 | 0.0 | 0.00 | 0.03 | 0.00 | 48 | 1019.2 |
| 20260507054521 | 8 | 44 | 0.0 | 0.0 | 0.00 | 0.10 | 0.00 | 47 | 1019.2 |
| 20260507053023 | 8 | 44 | 0.0 | 0.0 | 0.00 | 0.10 | 0.00 | 46 | 1019.2 |
| 20260507051520 | 8 | 44 | 0.0 | 0.0 | 0.00 | 0.10 | 0.00 | 46 | 1019.2 |
| 20260507050016 | 9 | 44 | 0.0 | 0.0 | 0.00 | 0.10 | 0.00 | 43 | 1019.2 |
| 20260507044516 | 9 | 44 | 0.0 | 0.0 | 0.00 | 0.10 | 0.10 | 44 | 1019.1 |
| 20260507043016 | 8 | 44 | 0.0 | 0.0 | 0.00 | 0.10 | 0.10 | 45 | 1019.1 |
| 20260507041515 | 8 | 44 | 0.0 | 0.0 | 0.00 | 0.10 | 0.10 | 46 | 1019.4 |
| 20260507040014 | 8 | 44 | 0.0 | 0.0 | 0.00 | 0.10 | 0.10 | 48 | 1019.4 |
| 20260507034518 | 8 | 44 | 0.0 | 0.0 | 0.00 | 0.10 | 0.10 | 46 | 1019.5 |
| 20260507033014 | 8 | 44 | 0.0 | 0.0 | 0.00 | 0.10 | 0.10 | 47 | 1019.3 |
| 20260507031513 | 8 | 44 | 0.0 | 0.0 | 0.00 | 0.10 | 0.10 | 45 | 1019.4 |
| 20260507030014 | 9 | 44 | 0.0 | 0.0 | 0.00 | 0.10 | 0.10 | 45 | 1019.3 |
| 20260507024512 | 9 | 44 | 0.0 | 0.0 | 0.00 | 0.10 | 0.10 | 44 | 1019.2 |
| 20260507023012 | 10 | 44 | 0.0 | 0.0 | 0.00 | 0.10 | 0.10 | 43 | 1019.1 |
| 20260507021515 | 10 | 44 | 0.0 | 0.0 | 0.00 | 0.10 | 0.10 | 41 | 1019.0 |
| 20260507020011 | 11 | 44 | 0.0 | 0.0 | 0.00 | 0.10 | 0.10 | 37 | 1019.0 |
| 20260507014510 | 12 | 44 | 0.0 | 0.0 | 0.00 | 0.10 | 0.10 | 33 | 1018.9 |
| 20260507013009 | 12 | 44 | 0.0 | 0.0 | 0.00 | 0.10 | 0.10 | 29 | 1018.9 |
| 20260507011516 | 13 | 44 | 0.0 | 3.2 | 0.00 | 0.10 | 0.10 | 27 | 1018.7 |
| 20260507010009 | 13 | 44 | 1.6 | 4.8 | 0.00 | 0.10 | 0.10 | 24 | 1018.6 |
| 20260507004512 | 14 | 44 | 1.6 | 6.4 | 0.00 | 0.10 | 0.10 | 23 | 1018.7 |
| 20260507003009 | 14 | 41 | 3.2 | 12.9 | 0.00 | 0.10 | 0.10 | 22 | 1018.6 |
| 20260507001507 | 15 | 24 | 4.8 | 16.1 | 0.00 | 0.10 | 0.10 | 21 | 1018.7 |
| 20260507000006 | 15 | 32 | 4.8 | 17.7 | 0.00 | 0.10 | 0.10 | 20 | 1018.8 |
| 20260506234510 | 15 | 60 | 6.4 | 17.7 | 0.00 | 0.10 | 0.10 | 21 | 1018.8 |
| 20260506233005 | 15 | 32 | 6.4 | 16.1 | 0.00 | 0.10 | 0.10 | 20 | 1018.6 |
| 20260506231504 | 15 | 54 | 3.2 | 24.1 | 0.00 | 0.10 | 0.10 | 22 | 1018.8 |
| 20260506230004 | 15 | 34 | 8.0 | 20.9 | 0.00 | 0.10 | 0.10 | 22 | 1018.7 |
| 20260506224503 | 15 | 350 | 6.4 | 17.7 | 0.00 | 0.10 | 0.10 | 20 | 1018.8 |
| 20260506223001 | 15 | 44 | 4.8 | 17.7 | 0.00 | 0.10 | 0.10 | 21 | 1018.7 |
| 20260506221501 | 15 | 334 | 6.4 | 19.3 | 0.00 | 0.10 | 0.10 | 21 | 1019.0 |
| 20260506220109 | 15 | 30 | 6.4 | 22.5 | 0.00 | 0.10 | 0.10 | 21 | 1018.9 |
| 20260506220003 | 15 | 9 | 4.8 | 22.5 | 0.00 | 0.10 | 0.10 | 21 | 1018.9 |
| 20260506214558 | 15 | 40 | 4.8 | 20.9 | 0.00 | 0.10 | 0.10 | 22 | 1019.1 |
| 20260506213102 | 15 | 288 | 9.7 | 19.3 | 0.00 | 0.10 | 0.10 | 21 | 1019.1 |
| 20260506211557 | 15 | 355 | 4.8 | 25.7 | 0.00 | 0.10 | 0.10 | 21 | 1019.4 |
| 20260506210107 | 15 | 9 | 8.0 | 24.1 | 0.00 | 0.10 | 0.10 | 22 | 1019.6 |
| 20260506204554 | 15 | 73 | 12.9 | 25.7 | 0.00 | 0.10 | 0.10 | 23 | 1019.8 |
| 20260506203139 | 14 | 360 | 4.8 | 17.7 | 0.00 | 0.10 | 0.10 | 23 | 1019.9 |
| 20260506201551 | 14 | 9 | 8.0 | 20.9 | 0.00 | 0.10 | 0.10 | 24 | 1020.0 |
| 20260506200052 | 14 | 5 | 8.0 | 22.5 | 0.00 | 0.10 | 0.10 | 23 | 1020.2 |
| 20260506194549 | 14 | 69 | 6.4 | 16.1 | 0.00 | 0.10 | 0.10 | 22 | 1020.4 |
| 20260506193045 | 14 | 36 | 6.4 | 17.7 | 0.00 | 0.10 | 0.10 | 24 | 1020.6 |